sat.trackr.live / text

‹ back to catalog

STARLINK-37425

NORAD 68815 · 2026-089P

PAYLOAD ACTIVE UNKNOWN

§ Identity

Operator
Country
US
Launch date
2026-04-23
Launch site
AFWTR
Launch vehicle
Mass (kg)
RCS (m²)

Purposes: comms

External: N2YO · Heavens-Above · Gunter

§ Orbital elements

Epoch: 2026-05-25T02:38:36.373344Z

Period
91.42 min
Inclination
97.2835°
Eccentricity
0.0001861
Mean motion
15.75186873 rev/d
Perigee alt
342.8 km
Apogee alt
345.4 km
Semi-major
6,722.2 km
B*
1.1836e-3
RAAN
351.7679°
Arg perigee
72.6860°
Mean anomaly
287.4608°
Rev number
506

§ Raw data

STARLINK-374251 68815U 26089P   26145.11014321  .00180163  00000+0  11836-2 0  99932 68815  97.2835 351.7679 0001861  72.6860 287.4608 15.75186873  5064

JSON: /api/v1/satellites/68815 · /tle

For live sub-satellite position, see the globe view (requires WebGL).

§ Visibility from observer

Set your observer location to see the next 7 days of passes ≥ 10°. The values pass through the URL so the page stays shareable.

No JS? Fill the form by hand. The geolocation button needs JavaScript.